Richmond Hanover County, VA

4:22 PM EDT on May 28, 2017 (GMT -0400)
Hanover County Municipal

Weather History for KOFP - November, 2012

Change the Weather History Date:

Tuesday, November 6, 2012

  Actual Average Record
Temperature  
Mean Temperature 36 °F -  
Max Temperature 45 °F 59 °F 81 °F (1948)
Min Temperature 27 °F 36 °F 15 °F (1967)
Degree Days  
Heating Degree Days 29    
Moisture  
Dew Point 29 °F    
Average Humidity 74    
Maximum Humidity 100    
Minimum Humidity 48    
Precipitation  
Precipitation 0.00 in - - ()
Sea Level Pressure  
Sea Level Pressure 30.12 in    
Wind  
Wind Speed 1 mph (North)    
Max Wind Speed 7 mph    
Max Gust Speed -    
Visibility 9 miles    
Events      
Averages and records for this station are not official NWS values.
T = Trace of Precipitation, MM = Missing Value Source: NWS Daily Summary

Daily Weather History Graph

Daily Weather History Graph

Search for Another Location

Airport or City:

Trip Planner

Search our weather history database for the weather conditions in past years. The results will help you decide how hot, cold, wet, or windy it might be!

Date:

Astronomy

Nov. 06, 2012 Rise Set
Actual Time 6:40 AM EST 5:05 PM EST
Civil Twilight 6:13 AM EST 5:33 PM EST
Nautical Twilight 5:42 AM EST 6:04 PM EST
Astronomical Twilight 5:11 AM EST 6:35 PM EST
Moon 11:41 PM EST (11/6) 12:32 PM EST (11/6)
Length of Visible Light 11h 19m
Length of Day
10h 24m
Waning Gibbous, 53% of the Moon is Illuminated
Nov 6
Waning Gibbous
Nov 6
Last Quarter
Nov 13
New
Nov 20
First Quarter
Nov 28
Full

Hourly Weather History & Observations

Time (EST) Temp. Windchill Dew Point Humidity Pressure Visibility Wind Dir Wind Speed Gust Speed Precip Events Conditions
12:54 AM 30.0 °F - 28.9 °F 96% 30.19 in 7.0 mi Calm Calm - N/A   Clear
1:54 AM 30.0 °F - 28.9 °F 96% 30.19 in 7.0 mi Calm Calm - N/A   Clear
2:54 AM 28.9 °F - 28.0 °F 96% 30.18 in 6.0 mi Calm Calm - N/A   Clear
3:54 AM 28.0 °F - 28.0 °F 100% 30.18 in 5.0 mi Calm Calm - N/A   Clear
4:54 AM 28.0 °F - 27.0 °F 96% 30.18 in 6.0 mi Calm Calm - N/A   Clear
5:54 AM 27.0 °F - 27.0 °F 100% 30.19 in 6.0 mi Calm Calm - N/A   Clear
6:54 AM 27.0 °F - 26.1 °F 96% 30.18 in 5.0 mi Calm Calm - N/A   Clear
7:54 AM 30.0 °F - 28.0 °F 92% 30.21 in 7.0 mi Calm Calm - N/A   Clear
8:54 AM 37.0 °F 33.3 °F 30.9 °F 79% 30.22 in 9.0 mi Variable 4.6 mph - N/A   Clear
9:54 AM 39.9 °F - 32.0 °F 73% 30.21 in 10.0 mi Calm Calm - N/A   Clear
10:54 AM 43.0 °F 41.3 °F 30.0 °F 60% 30.19 in 10.0 mi Variable 3.5 mph - N/A   Clear
11:54 AM 44.1 °F 42.5 °F 28.0 °F 53% 30.15 in 10.0 mi Variable 3.5 mph - N/A   Clear
12:54 PM 45.0 °F 43.5 °F 28.0 °F 52% 30.12 in 10.0 mi North 3.5 mph - N/A   Clear
1:54 PM 45.0 °F 41.8 °F 27.0 °F 49% 30.10 in 10.0 mi North 5.8 mph - N/A   Clear
2:54 PM 45.0 °F 42.6 °F 26.1 °F 48% 30.09 in 10.0 mi Variable 4.6 mph - N/A   Clear
3:54 PM 44.1 °F - 28.0 °F 53% 30.08 in 10.0 mi Calm Calm - N/A   Clear
4:54 PM 43.0 °F - 28.0 °F 56% 30.06 in 10.0 mi Calm Calm - N/A   Clear
5:54 PM 41.0 °F - 28.9 °F 62% 30.04 in 10.0 mi Calm Calm - N/A   Clear
6:54 PM 41.0 °F 38.0 °F 30.0 °F 65% 30.04 in 10.0 mi NW 4.6 mph - N/A   Overcast
7:54 PM 42.1 °F - 30.0 °F 62% 30.05 in 10.0 mi Calm Calm - N/A   Overcast
8:54 PM 41.0 °F 39.0 °F 30.9 °F 67% 30.04 in 10.0 mi North 3.5 mph - N/A   Overcast
9:54 PM 41.0 °F 38.0 °F 32.0 °F 70% 30.02 in 10.0 mi North 4.6 mph - N/A   Overcast
10:54 PM 41.0 °F 38.0 °F 33.1 °F 73% 30.00 in 10.0 mi NNW 4.6 mph - N/A   Overcast
11:54 PM 41.0 °F 36.4 °F 33.1 °F 73% 29.99 in 10.0 mi North 6.9 mph - N/A   Overcast